[[{"header":{"parameterUnit":"m.s-1","parameterCategory":1,"la1":30.2991,"la2":30.254,"lo1":-89.0895,"lo2":-89.0444,"dy":0.0017,"dx":0.0017,"nx":28,"ny":28,"refTime":"2025-01-19T03:00:00:Z","depth":0,"parameterNumber":2,"parameterNumberName":"U-component_of_WINDS"},"data":[0,0,0,0,0,0,0,0,0,0,0,0,0,0,0,0,0,0,0,0,0,0,0,0,0,0,0,0,0,0,0,0,0,0,0,0,0,0,0,0,0,0,0,0,0,0,0,0,0,0,0,0,0,0,0,0,0,0,-3.7677,-3.7678,0,-3.7716,-3.7717,-3.7717,-3.7615,-3.7611,-3.7608,-3.7605,-3.7646,-3.765,-3.7654,0,0,0,0,0,0,0,0,0,0,0,0,0,-3.7513,-3.7516,-3.7677,-3.7678,-3.7678,-3.7716,-3.7717,-3.7717,-3.7615,-3.7611,-3.7607,-3.7604,-3.7644,-3.7649,-3.7654,0,0,0,0,0,0,0,0,0,0,0,0,0,-3.7571,-3.7518,-3.7677,-3.7632,-3.7628,-3.7716,-3.7717,-3.7718,-3.7616,-3.7611,-3.7606,-3.7602,-3.7643,-3.7649,-3.7655,-3.7789,0,0,-3.7673,-3.7676,0,0,0,0,0,0,0,0,-3.7568,-3.7578,-3.7638,-3.7635,-3.7631,-3.7656,-3.7674,-3.7742,-3.7617,-3.7621,-3.7605,-3.7599,-3.7653,-3.7658,-3.7676,-3.7791,-3.7792,-3.7674,-3.7678,-3.768,-3.7682,0,0,0,0,0,0,0,-3.7564,-3.7575,-3.7693,-3.7639,-3.7635,-3.7609,-3.7612,-3.7686,-3.7663,-3.762,-3.7613,-3.7619,-3.765,-3.767,-3.7676,-3.7793,-3.7674,-3.7679,-3.7683,-3.7685,-3.8018,-3.8022,0,0,0,0,0,0,-3.7566,-3.7573,-3.7691,-3.7694,-3.7587,-3.7616,-3.7619,-3.7653,-3.7662,-3.7659,-3.7623,-3.7614,-3.7662,-3.7669,-3.7677,-3.7833,-3.768,-3.7686,-3.7689,-3.8012,-3.8019,-3.8024,0,0,0,0,0,0,-3.7563,-3.7578,-3.769,-3.7631,-3.7644,-3.7624,-3.7662,-3.7656,-3.7676,-3.7664,-3.766,-3.7647,-3.7659,-3.7668,-3.7761,-3.7833,-3.7689,-3.7694,-3.8006,-3.8014,-3.8022,-3.8148,0,0,0,0,0,0,-3.7559,-3.7577,-3.7628,-3.7633,-3.7647,-3.7774,-3.7667,-3.766,-3.7687,-3.7675,-3.7686,-3.7683,-3.7656,-3.7753,-3.7767,-3.7839,-3.7699,-3.8,-3.801,-3.8019,-3.8137,-3.8159,-3.8178,0,0,0,0,0,-3.7553,-3.7663,-3.7632,-3.7647,-3.7711,-3.7779,-3.7787,-3.7752,-3.7693,-3.7744,-3.7736,-3.7683,-3.7823,-3.7763,-3.7779,-3.7853,-3.7995,-3.8007,-3.8018,-3.8128,-3.8155,-3.8177,0,0,0,0,0,0,-3.7668,-3.7663,-3.7628,-3.7743,-3.7762,-3.7761,-3.7824,-3.7782,-3.7818,-3.7806,-3.7762,-3.7765,-3.7866,-3.7869,-3.7802,-3.7982,-3.7899,-3.7914,-3.7977,-3.8002,-3.8022,-3.8019,-3.7704,0,0,0,0,0,-3.7706,-3.7762,-3.7755,-3.7856,-3.7868,-3.7845,-3.7873,-3.7845,-3.7863,-3.7871,-3.7869,-3.7889,-3.7937,-3.797,-3.8013,-3.8137,-3.8137,-3.8196,-3.8216,-3.8233,-3.8246,-3.831,-3.8336,-3.8062,-3.8062,-3.8062,0,0,-3.7787,-3.7791,-3.7829,-3.788,-3.7891,-3.7949,-3.7852,-3.7918,-3.7961,-3.788,-3.7968,-3.7968,-3.7986,-3.8095,-3.8142,-3.81,-3.8322,-3.8248,-3.8261,-3.8266,-3.8325,-3.8351,-3.8374,-3.807,-3.8069,-3.8068,0,0,-3.7963,-3.7972,-3.8057,-3.807,-3.8088,-3.8072,-3.8092,-3.8098,-3.8095,-3.8182,-3.8122,-3.8172,-3.8256,-3.8271,-3.829,-3.847,-3.8422,-3.8485,-3.8591,-3.8654,-3.8675,-3.8694,-3.8757,-3.878,-3.8499,-3.8499,-3.85,0,-3.806,-3.8146,-3.8106,-3.8176,-3.8199,-3.8128,-3.8213,-3.8228,-3.826,-3.8278,-3.823,-3.8333,-3.8341,-3.8451,-3.8495,-3.8513,-3.8534,-3.8484,-3.8675,-3.8694,-3.8711,-3.877,-3.8794,-3.8507,-3.8506,-3.8505,-3.8505,0,-3.8264,-3.8324,-3.839,-3.8422,-3.8453,-3.853,-3.8502,-3.8538,-3.8507,-3.8495,-3.8583,-3.859,-3.8633,-3.8657,-3.8628,-3.8763,-3.8736,-3.8683,-3.8598,-3.8745,-3.88,-3.8823,-3.8518,-3.8515,-3.8513,-3.8511,0,0,-3.8514,-3.8522,-3.8547,-3.8559,-3.8574,-3.8619,-3.8693,-3.8734,-3.8765,-3.8789,-3.8849,-3.8921,-3.8871,-3.8893,-3.8864,-3.892,-3.906,-3.8859,-3.8859,-3.8895,-3.9207,-3.9247,-3.9274,-3.9028,-3.9032,-3.9036,-3.9205,0,-3.8687,-3.8812,-3.8778,-3.8903,-3.8958,-3.889,-3.8954,-3.8969,-3.896,-3.9005,-3.8994,-3.9046,-3.8977,-3.8989,-3.9041,-3.9032,-3.9122,-3.9019,-3.9083,-3.9085,-3.9079,-3.9303,-3.9345,-3.9505,-3.9227,-3.9231,-3.9233,0,-3.8905,-3.8937,-3.9067,-3.9071,-3.9092,-3.915,-3.9184,-3.9228,-3.9243,-3.9233,-3.9256,-3.9216,-3.9287,-3.9202,-3.9299,-3.923,-3.9254,-3.9253,-3.9258,-3.9263,-3.9168,-3.9312,-3.9556,-3.9579,-3.9267,-3.9264,-3.9262,0,-3.9073,-3.9148,-3.9235,-3.9249,-3.9255,-3.9297,-3.9302,-3.9313,-3.9339,-3.9369,-3.9386,-3.9424,-3.9445,-3.9476,-3.9446,-3.9387,-3.9547,-3.946,-3.954,-3.9541,-3.9576,-3.9574,-3.9826,-3.9593,-3.9593,-3.9593,-3.9592,0,-3.9269,-3.9351,-3.9311,-3.9365,-3.9454,-3.9414,-3.9504,-3.95,-3.951,-3.9562,-3.9506,-3.9556,-3.9514,-3.956,-3.9537,-3.962,-3.963,-3.9623,-3.9616,-3.9628,-3.9629,-3.9642,-3.963,-3.9599,-3.9598,-3.9596,-3.9595,0,-3.9471,-3.9448,-3.9538,-3.9537,-3.9538,-3.9604,-3.9603,-3.9652,-3.9638,-3.9704,-3.9717,-3.9696,-3.9746,-3.972,-3.9773,-3.9757,-3.9864,-3.9843,-3.9859,-3.9853,-3.9934,-3.9926,-4.0202,-4.0236,-3.9983,-3.9985,-3.9987,0,-3.9598,-3.9659,-3.9664,-3.9694,-3.9702,-3.9752,-3.9778,-3.9741,-3.977,-3.9792,-3.9838,-3.9884,-3.9918,-4.0002,-3.9991,-4.003,-4.0008,-4.0103,-4.0014,-4.0023,-4.0009,-4.0005,-4.001,-4.012,-4.0123,-4.0126,-4.0128,0,-3.9824,-3.9809,-3.9849,-3.9885,-3.9918,-3.9945,-3.9967,-3.9995,-3.9957,-3.9993,-4.0044,-4.007,-4.0123,-4.0169,-4.0202,-4.0206,-4.0161,-4.0156,-4.0176,-4.0188,-4.0195,-4.0191,-3.9907,-4.0149,-4.0147,-4.0146,-4.0144,-4.0144,-3.9991,-4.0042,-4.0053,-4.0099,-4.0111,-4.0133,-4.0179,-4.017,-4.0212,-4.0251,-4.0226,-4.0286,-4.0298,-4.0338,-4.0348,-4.0393,-4.0356,-4.0386,-4.0393,-4.0401,-4.0411,-4.0188,-4.04,-4.0399,-4.0398,-4.0398,-4.0397,0,-4.0214,-4.0217,-4.026,-4.0292,-4.0328,-4.0281,-4.0303,-4.0336,-4.0389,-4.0404,-4.0438,-4.0496,-4.0539,-4.0531,-4.057,-4.0608,-4.0588,-4.0619,-4.0616,-4.0617,-4.0443,-4.0421,-4.0635,-4.0635,-4.0635,-4.0635,-4.0635,-4.0635,-4.0334,-4.0417,-4.0403,-4.0491,-4.0493,-4.055,-4.0566,-4.0585,-4.0597,-4.0663,-4.0699,-4.0693,-4.0699,-4.0737,-4.0775,-4.0771,-4.0788,-4.0827,-4.0816,-4.0653,-4.063,-4.0607,-4.0586,-4.0831,-4.0832,-4.0986,-4.0987,-4.0988]},{"header":{"parameterUnit":"m.s-1","parameterCategory":1,"la1":30.2991,"la2":30.254,"lo1":-89.0895,"lo2":-89.0444,"dy":0.0017,"dx":0.0017,"nx":28,"ny":28,"refTime":"2025-01-19T03:00:00:Z","depth":0,"parameterNumber":3,"parameterNumberName":"V-component_of_WINDS"},"data":[0,0,0,0,0,0,0,0,0,0,0,0,0,0,0,0,0,0,0,0,0,0,0,0,0,0,0,0,0,0,0,0,0,0,0,0,0,0,0,0,0,0,0,0,0,0,0,0,0,0,0,0,0,0,0,0,0,0,-4.6413,-4.6414,0,-4.6479,-4.648,-4.648,-4.6424,-4.6421,-4.6419,-4.6417,-4.6481,-4.6485,-4.6488,0,0,0,0,0,0,0,0,0,0,0,0,0,-4.6233,-4.6237,-4.6413,-4.6414,-4.6415,-4.6479,-4.648,-4.6481,-4.6424,-4.6421,-4.6418,-4.6416,-4.6479,-4.6484,-4.6489,0,0,0,0,0,0,0,0,0,0,0,0,0,-4.6306,-4.6238,-4.6413,-4.6394,-4.6393,-4.6479,-4.648,-4.6481,-4.6425,-4.6421,-4.6418,-4.6414,-4.6478,-4.6484,-4.6489,-4.6596,0,0,-4.6507,-4.651,0,0,0,0,0,0,0,0,-4.6302,-4.6313,-4.6396,-4.6396,-4.6395,-4.644,-4.644,-4.6519,-4.6425,-4.6413,-4.6417,-4.6413,-4.647,-4.6476,-4.6496,-4.6599,-4.6601,-4.6508,-4.6511,-4.6514,-4.6515,0,0,0,0,0,0,0,-4.6297,-4.631,-4.6439,-4.6397,-4.6397,-4.6381,-4.6387,-4.6455,-4.646,-4.6413,-4.6409,-4.6418,-4.6469,-4.649,-4.6497,-4.6602,-4.6508,-4.6513,-4.6516,-4.6519,-4.6792,-4.6796,0,0,0,0,0,0,-4.6295,-4.6306,-4.6437,-4.6441,-4.6339,-4.6387,-4.6394,-4.6429,-4.6459,-4.646,-4.6421,-4.6415,-4.6482,-4.649,-4.6499,-4.6623,-4.6514,-4.6519,-4.6523,-4.6789,-4.6793,-4.6797,0,0,0,0,0,0,-4.6291,-4.6307,-4.6434,-4.6372,-4.6387,-4.6394,-4.6433,-4.6432,-4.6454,-4.6465,-4.6465,-4.6443,-4.648,-4.6491,-4.6572,-4.6625,-4.6522,-4.6527,-4.6784,-4.679,-4.6795,-4.6874,0,0,0,0,0,0,-4.6286,-4.6306,-4.6348,-4.6374,-4.6391,-4.6507,-4.6436,-4.6436,-4.6464,-4.6457,-4.6485,-4.6487,-4.6478,-4.6563,-4.6577,-4.6631,-4.6532,-4.6779,-4.6787,-4.6794,-4.6867,-4.6882,-4.6895,0,0,0,0,0,-4.628,-4.6367,-4.635,-4.6366,-4.6444,-4.6511,-4.652,-4.6509,-4.6469,-4.651,-4.6517,-4.6486,-4.6617,-4.6572,-4.6588,-4.6644,-4.6776,-4.6785,-4.6793,-4.6861,-4.6879,-4.6895,0,0,0,0,0,0,-4.6346,-4.637,-4.6352,-4.645,-4.6479,-4.6501,-4.6552,-4.653,-4.657,-4.6561,-4.6545,-4.6552,-4.6637,-4.6648,-4.6598,-4.6747,-4.669,-4.6702,-4.6736,-4.6753,-4.6767,-4.6762,-4.6537,0,0,0,0,0,-4.6373,-4.6427,-4.6444,-4.6529,-4.6545,-4.6546,-4.6575,-4.6564,-4.6593,-4.6604,-4.6617,-4.6645,-4.6692,-4.6724,-4.6768,-4.6869,-4.6873,-4.6915,-4.6929,-4.694,-4.695,-4.7002,-4.702,-4.6825,-4.6825,-4.6825,0,0,-4.6427,-4.6447,-4.6482,-4.6543,-4.6564,-4.6618,-4.6557,-4.6618,-4.6657,-4.6613,-4.669,-4.67,-4.673,-4.6821,-4.6861,-4.6833,-4.7005,-4.6951,-4.696,-4.6964,-4.7012,-4.7031,-4.7047,-4.6831,-4.683,-4.6829,0,0,-4.6554,-4.6575,-4.6648,-4.667,-4.6702,-4.6703,-4.672,-4.6745,-4.6751,-4.6828,-4.6795,-4.6841,-4.6924,-4.6946,-4.6968,-4.7101,-4.7073,-4.7116,-4.7188,-4.7239,-4.7254,-4.7268,-4.7313,-4.733,-4.7126,-4.7126,-4.7127,0,-4.6617,-4.6699,-4.6687,-4.675,-4.6777,-4.674,-4.6812,-4.6834,-4.6879,-4.6897,-4.6865,-4.6967,-4.6984,-4.7078,-4.7111,-4.7131,-4.7148,-4.7112,-4.7253,-4.7267,-4.7279,-4.7322,-4.7339,-4.7131,-4.7131,-4.713,-4.713,0,-4.6774,-4.6831,-4.6885,-4.693,-4.6963,-4.703,-4.7027,-4.7061,-4.7047,-4.705,-4.7128,-4.7148,-4.7194,-4.7216,-4.7203,-4.7308,-4.7289,-4.7256,-4.7198,-4.7303,-4.7343,-4.7359,-4.7138,-4.7136,-4.7135,-4.7134,0,0,-4.6944,-4.6981,-4.7001,-4.702,-4.7053,-4.7096,-4.716,-4.7207,-4.7235,-4.7268,-4.7319,-4.739,-4.7358,-4.7383,-4.7372,-4.7417,-4.7518,-4.7377,-4.7377,-4.7401,-4.7632,-4.7656,-4.7675,-4.75,-4.7504,-4.7506,-4.7629,0,-4.7071,-4.7184,-4.7174,-4.728,-4.7332,-4.7297,-4.7353,-4.7378,-4.7382,-4.7425,-4.7429,-4.7478,-4.7434,-4.7449,-4.7491,-4.7497,-4.7564,-4.7488,-4.7546,-4.7549,-4.7539,-4.7697,-4.7723,-4.7838,-4.7645,-4.7647,-4.7649,0,-4.7234,-4.7271,-4.7383,-4.7406,-4.7427,-4.7478,-4.7518,-4.756,-4.7587,-4.7587,-4.7614,-4.7595,-4.7657,-4.7599,-4.7684,-4.7632,-4.7656,-4.7662,-4.7666,-4.7669,-4.7604,-4.7703,-4.7874,-4.7891,-4.7674,-4.7672,-4.7671,0,-4.7344,-4.7423,-4.7499,-4.7517,-4.7546,-4.7582,-4.7596,-4.7619,-4.7647,-4.7682,-4.77,-4.7742,-4.7764,-4.7796,-4.7788,-4.7746,-4.7873,-4.7815,-4.7873,-4.7873,-4.79,-4.7898,-4.8076,-4.7918,-4.7918,-4.7918,-4.7917,0,-4.7485,-4.7554,-4.7549,-4.7596,-4.7671,-4.7659,-4.7733,-4.7742,-4.7763,-4.781,-4.7783,-4.7826,-4.7814,-4.7856,-4.785,-4.792,-4.7931,-4.7931,-4.7928,-4.7932,-4.7932,-4.7946,-4.7937,-4.7922,-4.7921,-4.792,-4.792,0,-4.7621,-4.7621,-4.7701,-4.7722,-4.7729,-4.7784,-4.7801,-4.7844,-4.7846,-4.7904,-4.7917,-4.792,-4.7969,-4.7964,-4.8019,-4.8014,-4.81,-4.8089,-4.8091,-4.8088,-4.8146,-4.8139,-4.8337,-4.8361,-4.819,-4.8192,-4.8193,0,-4.771,-4.7762,-4.7789,-4.7819,-4.7835,-4.7883,-4.7911,-4.79,-4.793,-4.7964,-4.8003,-4.8049,-4.8085,-4.8165,-4.817,-4.8211,-4.8199,-4.8266,-4.8205,-4.8207,-4.8198,-4.8194,-4.8198,-4.8277,-4.8279,-4.8281,-4.8282,0,-4.7868,-4.7865,-4.7907,-4.7949,-4.7984,-4.8016,-4.8045,-4.8071,-4.8063,-4.8098,-4.8147,-4.8176,-4.8231,-4.8277,-4.8315,-4.8327,-4.8303,-4.8301,-4.8316,-4.832,-4.8319,-4.8318,-4.8122,-4.8296,-4.8295,-4.8294,-4.8293,-4.8292,-4.7982,-4.8026,-4.8051,-4.8098,-4.8119,-4.8147,-4.8188,-4.8195,-4.8237,-4.8281,-4.8272,-4.8328,-4.8351,-4.84,-4.8417,-4.8458,-4.8434,-4.8457,-4.8462,-4.8467,-4.8473,-4.8314,-4.8466,-4.8465,-4.8465,-4.8465,-4.8464,0,-4.8136,-4.815,-4.8194,-4.8236,-4.8273,-4.8248,-4.8279,-4.831,-4.836,-4.8384,-4.8421,-4.8477,-4.8521,-4.853,-4.8571,-4.8603,-4.8592,-4.8614,-4.861,-4.8613,-4.8494,-4.8475,-4.8621,-4.8621,-4.8621,-4.8621,-4.8621,-4.8621,-4.8221,-4.8293,-4.8293,-4.8374,-4.8388,-4.8443,-4.8462,-4.8486,-4.8506,-4.857,-4.8606,-4.8612,-4.863,-4.8672,-4.871,-4.8711,-4.8727,-4.8753,-4.8749,-4.8637,-4.8622,-4.8607,-4.8589,-4.8757,-4.8757,-4.8865,-4.8866,-4.8867]}]]